PLF014 EPKK-EPKK

Flight info

Callsign PLF014
Flight time 1h 9m
Altitude 11000
Route LUXA5J LUXAR VFR EPRZW EPRZY EPRZ STAY01/0030/ EPRZN EPRZK IFR DCT GOVRI GOVR4G
Aircraft C295/M-SDFGIRY/S

Departure

Time 2026-05-04 13:19
Airport Kraków John Paul II International Airport (EPKK)

Arrival

Time 2026-05-04 14:28
Airport Kraków John Paul II International Airport (EPKK)
Time Latitude Longitude Altitude Speed Heading
2026-05-04 13:00 50.07569 19.79209 786 ft 0 kts 347°
2026-05-04 13:11 50.07572 19.79208 786 ft 2 kts 347°
2026-05-04 13:11 50.07580 19.79206 786 ft 3 kts 349°
2026-05-04 13:11 50.07603 19.79199 786 ft 4 kts 353°
2026-05-04 13:12 50.07619 19.79218 786 ft 5 kts 56°
2026-05-04 13:12 50.07634 19.79303 786 ft 11 kts 77°
2026-05-04 13:12 50.07652 19.79437 786 ft 14 kts 78°
2026-05-04 13:12 50.07674 19.79597 786 ft 16 kts 78°
2026-05-04 13:13 50.07693 19.79735 786 ft 11 kts 77°
2026-05-04 13:13 50.07711 19.79859 786 ft 9 kts 77°
2026-05-04 13:13 50.07727 19.79979 786 ft 13 kts 78°
2026-05-04 13:13 50.07749 19.80131 786 ft 13 kts 78°
2026-05-04 13:14 50.07763 19.80232 786 ft 12 kts 78°
2026-05-04 13:14 50.07785 19.80335 787 ft 8 kts 44°
2026-05-04 13:14 50.07840 19.80338 787 ft 3 kts 348°
2026-05-04 13:14 50.07841 19.80337 787 ft 0 kts 348°
2026-05-04 13:16 50.07842 19.80337 787 ft 1 kts 348°
2026-05-04 13:16 50.07861 19.80330 787 ft 5 kts 347°
2026-05-04 13:16 50.07902 19.80316 786 ft 7 kts 347°
2026-05-04 13:17 50.07961 19.80296 786 ft 10 kts 347°
2026-05-04 13:17 50.08010 19.80234 786 ft 8 kts 289°
2026-05-04 13:17 50.08008 19.80156 786 ft 7 kts 258°
2026-05-04 13:17 50.08007 19.80150 786 ft 0 kts 258°
2026-05-04 13:18 50.08001 19.80106 786 ft 19 kts 257°
2026-05-04 13:18 50.07935 19.79632 787 ft 73 kts 257°
2026-05-04 13:18 50.07791 19.78602 787 ft 120 kts 258°
2026-05-04 13:18 50.07611 19.77209 1038 ft 139 kts 259°
2026-05-04 13:19 50.07366 19.75604 1256 ft 168 kts 255°
2026-05-04 13:19 50.07083 19.73877 1904 ft 160 kts 257°
2026-05-04 13:19 50.06871 19.72248 2674 ft 152 kts 257°
2026-05-04 13:19 50.06657 19.70667 3431 ft 147 kts 256°
2026-05-04 13:20 50.06460 19.69142 4074 ft 141 kts 256°
2026-05-04 13:20 50.06259 19.67634 4792 ft 144 kts 256°
2026-05-04 13:20 50.06057 19.66112 5564 ft 142 kts 256°
2026-05-04 13:20 50.05785 19.64640 6242 ft 142 kts 234°
2026-05-04 13:21 50.04916 19.64040 6719 ft 148 kts 178°
2026-05-04 13:21 50.03879 19.64266 7283 ft 151 kts 176°
2026-05-04 13:21 50.02843 19.64566 7930 ft 152 kts 172°
2026-05-04 13:21 50.01788 19.64954 8486 ft 159 kts 171°
2026-05-04 13:22 50.00716 19.65353 9180 ft 158 kts 171°
2026-05-04 13:22 49.99651 19.65761 9836 ft 157 kts 171°
2026-05-04 13:22 49.98576 19.66159 10335 ft 161 kts 171°
2026-05-04 13:22 49.97509 19.66573 10949 ft 157 kts 171°
2026-05-04 13:23 49.96334 19.66980 11027 ft 189 kts 173°
2026-05-04 13:23 49.94954 19.67400 11004 ft 215 kts 172°
2026-05-04 13:23 49.93419 19.67884 10990 ft 233 kts 172°
2026-05-04 13:23 49.91778 19.68434 10993 ft 247 kts 171°
2026-05-04 13:24 49.90069 19.69053 10988 ft 257 kts 166°
2026-05-04 13:24 49.88554 19.70627 10980 ft 274 kts 134°
2026-05-04 13:24 49.87743 19.73304 10990 ft 287 kts 103°
2026-05-04 13:25 49.88647 19.79357 10982 ft 289 kts 68°
2026-05-04 13:25 49.89384 19.82202 10984 ft 281 kts 72°
2026-05-04 13:25 49.89967 19.85092 10992 ft 280 kts 77°
2026-05-04 13:25 49.90416 19.88031 10980 ft 280 kts 80°
2026-05-04 13:26 49.90798 19.90990 10983 ft 280 kts 82°
2026-05-04 13:26 49.91168 19.93954 10994 ft 280 kts 81°
2026-05-04 13:26 49.91547 19.96928 10991 ft 281 kts 81°
2026-05-04 13:26 49.91944 19.99893 10981 ft 281 kts 80°
2026-05-04 13:27 49.92343 20.02865 10986 ft 281 kts 80°
2026-05-04 13:27 49.92742 20.05834 10975 ft 280 kts 81°
2026-05-04 13:27 49.93110 20.08798 10977 ft 280 kts 82°
2026-05-04 13:27 49.93468 20.11764 10988 ft 279 kts 82°
2026-05-04 13:28 49.93820 20.14695 10990 ft 280 kts 82°
2026-05-04 13:28 49.94178 20.17663 10984 ft 279 kts 82°
2026-05-04 13:28 49.94531 20.20632 10978 ft 279 kts 82°
2026-05-04 13:28 49.94887 20.23591 10991 ft 278 kts 81°
2026-05-04 13:29 49.95237 20.26548 10987 ft 279 kts 82°
2026-05-04 13:29 49.95591 20.29516 10991 ft 279 kts 82°
2026-05-04 13:29 49.95947 20.32484 10990 ft 279 kts 82°
2026-05-04 13:29 49.96295 20.35458 10994 ft 278 kts 83°
2026-05-04 13:30 49.96341 20.38433 10998 ft 276 kts 97°
2026-05-04 13:30 49.96168 20.41410 11001 ft 278 kts 99°
2026-05-04 13:30 49.95983 20.44373 10994 ft 279 kts 98°
2026-05-04 13:30 49.95827 20.47387 10991 ft 280 kts 96°
2026-05-04 13:31 49.95709 20.50411 10992 ft 280 kts 96°
2026-05-04 13:31 49.95593 20.53437 10992 ft 281 kts 96°
2026-05-04 13:31 49.95483 20.56462 10981 ft 279 kts 96°
2026-05-04 13:31 49.95372 20.59312 10787 ft 250 kts 97°
2026-05-04 13:32 49.95282 20.61883 10545 ft 229 kts 96°
2026-05-04 13:32 49.95215 20.64281 10311 ft 216 kts 96°
2026-05-04 13:32 49.95141 20.66567 10017 ft 210 kts 98°
2026-05-04 13:32 49.95054 20.68794 9564 ft 211 kts 98°
2026-05-04 13:33 49.94958 20.71085 9066 ft 214 kts 97°
2026-05-04 13:33 49.94866 20.73402 8579 ft 215 kts 97°
2026-05-04 13:33 49.94778 20.75684 8221 ft 208 kts 97°
2026-05-04 13:33 49.94685 20.77912 7861 ft 205 kts 97°
2026-05-04 13:34 49.94594 20.80131 7389 ft 207 kts 96°
2026-05-04 13:34 49.94508 20.82366 6920 ft 208 kts 95°
2026-05-04 13:34 49.94413 20.84608 6456 ft 209 kts 95°
2026-05-04 13:34 49.94320 20.86865 5970 ft 209 kts 95°
2026-05-04 13:35 49.94235 20.89095 5476 ft 209 kts 95°
2026-05-04 13:35 49.94061 20.93366 5062 ft 185 kts 95°
2026-05-04 13:35 49.93979 20.95292 5021 ft 179 kts 96°
2026-05-04 13:36 49.93894 20.97398 5020 ft 212 kts 95°
2026-05-04 13:36 49.93789 20.99836 5000 ft 238 kts 95°
2026-05-04 13:36 49.93675 21.02499 5018 ft 256 kts 95°
2026-05-04 13:36 49.93592 21.04323 5011 ft 255 kts 95°
2026-05-04 13:37 49.93471 21.07049 4973 ft 252 kts 96°
2026-05-04 13:37 49.93357 21.09740 4994 ft 248 kts 95°
2026-05-04 13:37 49.93240 21.12399 5084 ft 247 kts 96°
2026-05-04 13:37 49.93152 21.15052 5047 ft 246 kts 86°
2026-05-04 13:38 49.93610 21.17644 4788 ft 254 kts 72°
2026-05-04 13:38 49.94221 21.20238 4521 ft 263 kts 70°
2026-05-04 13:38 49.94881 21.22923 4233 ft 269 kts 70°
2026-05-04 13:38 49.95519 21.25499 3929 ft 241 kts 70°
2026-05-04 13:39 49.96105 21.27779 3696 ft 216 kts 69°
2026-05-04 13:39 49.96645 21.29821 3558 ft 193 kts 70°
2026-05-04 13:39 49.97143 21.31666 3414 ft 182 kts 69°
2026-05-04 13:39 49.97640 21.33487 3123 ft 184 kts 68°
2026-05-04 13:40 49.98153 21.35293 2850 ft 187 kts 69°
2026-05-04 13:40 49.98677 21.37287 2611 ft 208 kts 70°
2026-05-04 13:40 49.99233 21.39441 2333 ft 220 kts 69°
2026-05-04 13:40 49.99806 21.41631 2143 ft 222 kts 70°
2026-05-04 13:41 50.00389 21.43846 2081 ft 218 kts 69°
2026-05-04 13:41 50.00941 21.46007 2023 ft 213 kts 71°
2026-05-04 13:41 50.01455 21.48166 2016 ft 212 kts 71°
2026-05-04 13:42 50.02401 21.52460 2035 ft 208 kts 74°
2026-05-04 13:42 50.02839 21.54604 2059 ft 208 kts 74°
2026-05-04 13:42 50.03280 21.56749 2091 ft 208 kts 74°
2026-05-04 13:42 50.03724 21.58895 2113 ft 209 kts 74°
2026-05-04 13:43 50.04164 21.61051 2109 ft 210 kts 74°
2026-05-04 13:43 50.04599 21.63216 2038 ft 209 kts 74°
2026-05-04 13:43 50.05027 21.65352 2012 ft 205 kts 74°
2026-05-04 13:43 50.05440 21.67457 1986 ft 201 kts 75°
2026-05-04 13:44 50.05847 21.69534 2013 ft 201 kts 75°
2026-05-04 13:44 50.06184 21.71615 1979 ft 196 kts 86°
2026-05-04 13:44 50.06299 21.73695 1998 ft 196 kts 88°
2026-05-04 13:44 50.06396 21.75845 1995 ft 198 kts 88°
2026-05-04 13:45 50.06484 21.77974 2053 ft 200 kts 89°
2026-05-04 13:45 50.06571 21.80148 2069 ft 202 kts 89°
2026-05-04 13:45 50.06652 21.82328 2035 ft 201 kts 90°
2026-05-04 13:45 50.06741 21.84502 2050 ft 201 kts 90°
2026-05-04 13:46 50.06828 21.86688 2030 ft 202 kts 88°
2026-05-04 13:46 50.06915 21.88897 1923 ft 207 kts 89°
2026-05-04 13:46 50.07011 21.91158 1829 ft 211 kts 89°
2026-05-04 13:46 50.07096 21.93451 1665 ft 213 kts 88°
2026-05-04 13:47 50.07159 21.95760 1542 ft 212 kts 91°
2026-05-04 13:47 50.07199 21.97941 1527 ft 207 kts 90°
2026-05-04 13:47 50.07248 22.00172 1496 ft 206 kts 90°
2026-05-04 13:47 50.07306 22.02391 1456 ft 204 kts 89°
2026-05-04 13:48 50.07364 22.04610 1317 ft 207 kts 90°
2026-05-04 13:48 50.07412 22.06803 1308 ft 200 kts 91°
2026-05-04 13:48 50.07451 22.08925 1418 ft 193 kts 90°
2026-05-04 13:48 50.07497 22.10957 1347 ft 184 kts 91°
2026-05-04 13:49 50.07598 22.12903 1274 ft 175 kts 71°
2026-05-04 13:49 50.08470 22.14143 1015 ft 176 kts 11°
2026-05-04 13:49 50.09651 22.14283 982 ft 164 kts 353°
2026-05-04 13:49 50.10585 22.13603 994 ft 145 kts 303°
2026-05-04 13:50 50.10928 22.12174 973 ft 139 kts 270°
2026-05-04 13:50 50.10885 22.10698 955 ft 134 kts 264°
2026-05-04 13:50 50.10904 22.09348 969 ft 129 kts 270°
2026-05-04 13:50 50.10933 22.08002 1036 ft 123 kts 268°
2026-05-04 13:51 50.10950 22.06622 914 ft 134 kts 266°
2026-05-04 13:51 50.10959 22.05189 757 ft 129 kts 268°
2026-05-04 13:51 50.10974 22.03860 681 ft 117 kts 267°
2026-05-04 13:51 50.10985 22.02719 677 ft 111 kts 270°
2026-05-04 13:52 50.11046 22.00159 1014 ft 118 kts 268°
2026-05-04 13:52 50.11057 21.98679 1188 ft 153 kts 268°
2026-05-04 13:52 50.11040 21.96877 1497 ft 178 kts 266°
2026-05-04 13:53 50.10968 21.94822 1763 ft 201 kts 264°
2026-05-04 13:53 50.10734 21.92604 1995 ft 213 kts 239°
2026-05-04 13:53 50.09466 21.91372 1926 ft 238 kts 184°
2026-05-04 13:54 50.06389 21.92489 1856 ft 189 kts 137°
2026-05-04 13:54 50.06060 21.94282 1640 ft 182 kts 81°
2026-05-04 13:54 50.06484 21.98627 1645 ft 232 kts 83°
2026-05-04 13:55 50.06732 22.01236 1615 ft 252 kts 83°
2026-05-04 13:55 50.07204 22.06492 1442 ft 215 kts 83°
2026-05-04 13:55 50.07442 22.08672 1273 ft 193 kts 82°
2026-05-04 13:56 50.07638 22.10645 1135 ft 176 kts 79°
2026-05-04 13:56 50.08331 22.12250 1206 ft 188 kts 34°
2026-05-04 13:56 50.10572 22.11739 1229 ft 174 kts 291°
2026-05-04 13:57 50.10906 22.09935 1062 ft 186 kts 274°
2026-05-04 13:57 50.10935 22.07882 948 ft 195 kts 266°
2026-05-04 13:58 50.11012 22.01169 895 ft 215 kts 270°
2026-05-04 13:58 50.11233 21.96376 1569 ft 224 kts 287°
2026-05-04 13:58 50.12264 21.94700 1684 ft 220 kts 339°
2026-05-04 13:59 50.13764 21.94730 1634 ft 215 kts 16°
2026-05-04 13:59 50.15050 21.95815 1684 ft 207 kts 40°
2026-05-04 13:59 50.16125 21.99692 1552 ft 198 kts 87°
2026-05-04 14:00 50.16212 22.01788 1621 ft 190 kts 91°
2026-05-04 14:00 50.17219 22.05181 1717 ft 188 kts 12°
2026-05-04 14:00 50.18466 22.04757 1527 ft 188 kts 319°
2026-05-04 14:01 50.19356 22.03346 1566 ft 176 kts 307°
2026-05-04 14:01 50.20057 22.01836 1667 ft 170 kts 296°
2026-05-04 14:01 50.20944 21.98443 1673 ft 172 kts 285°
2026-05-04 14:02 50.21362 21.96715 1848 ft 169 kts 288°
2026-05-04 14:02 50.21829 21.94980 1876 ft 184 kts 290°
2026-05-04 14:02 50.22352 21.93033 1910 ft 205 kts 290°
2026-05-04 14:02 50.22921 21.90908 1957 ft 216 kts 290°
2026-05-04 14:03 50.23426 21.88650 2006 ft 226 kts 284°
2026-05-04 14:03 50.23822 21.86324 1803 ft 207 kts 282°
2026-05-04 14:03 50.24148 21.84266 1612 ft 185 kts 282°
2026-05-04 14:03 50.24411 21.82396 1378 ft 172 kts 279°
2026-05-04 14:04 50.24822 21.78791 1436 ft 164 kts 277°
2026-05-04 14:04 50.25022 21.77064 1552 ft 157 kts 278°
2026-05-04 14:04 50.25217 21.75454 1764 ft 146 kts 278°
2026-05-04 14:05 50.25478 21.72389 1944 ft 144 kts 259°
2026-05-04 14:05 50.25025 21.71029 1927 ft 143 kts 237°
2026-05-04 14:05 50.24526 21.69631 1989 ft 151 kts 242°
2026-05-04 14:06 50.24079 21.68144 2096 ft 152 kts 245°
2026-05-04 14:06 50.23642 21.66483 2409 ft 175 kts 248°
2026-05-04 14:06 50.23237 21.64630 2822 ft 189 kts 250°
2026-05-04 14:06 50.22832 21.62601 3316 ft 200 kts 252°
2026-05-04 14:07 50.22423 21.60474 3833 ft 209 kts 252°
2026-05-04 14:07 50.21998 21.58273 4221 ft 215 kts 252°
2026-05-04 14:07 50.21569 21.56014 4587 ft 220 kts 252°
2026-05-04 14:07 50.21113 21.53720 4961 ft 222 kts 251°
2026-05-04 14:08 50.20647 21.51411 5351 ft 225 kts 252°
2026-05-04 14:08 50.20172 21.49062 5753 ft 228 kts 252°
2026-05-04 14:08 50.19687 21.46686 6126 ft 231 kts 252°
2026-05-04 14:08 50.19196 21.44291 6497 ft 232 kts 252°
2026-05-04 14:09 50.18224 21.39494 7195 ft 231 kts 251°
2026-05-04 14:09 50.17735 21.37104 7569 ft 231 kts 251°
2026-05-04 14:10 50.16759 21.32327 8300 ft 231 kts 251°
2026-05-04 14:10 50.16272 21.29949 8674 ft 229 kts 251°
2026-05-04 14:10 50.15785 21.27592 9057 ft 228 kts 250°
2026-05-04 14:10 50.15302 21.25245 9464 ft 227 kts 251°
2026-05-04 14:11 50.14826 21.22935 9834 ft 226 kts 250°
2026-05-04 14:11 50.13865 21.18279 10539 ft 225 kts 251°
2026-05-04 14:11 50.13385 21.15956 10808 ft 228 kts 251°
2026-05-04 14:12 50.12890 21.13555 10885 ft 238 kts 251°
2026-05-04 14:12 50.12372 21.11054 10932 ft 246 kts 251°
2026-05-04 14:12 50.11304 21.05896 10955 ft 246 kts 251°
2026-05-04 14:13 50.10896 21.03363 10954 ft 239 kts 266°
2026-05-04 14:13 50.11272 21.00842 10965 ft 241 kts 288°
2026-05-04 14:13 50.11979 20.98473 10948 ft 241 kts 293°
2026-05-04 14:13 50.12736 20.96178 10961 ft 240 kts 292°
2026-05-04 14:14 50.13478 20.93859 10947 ft 238 kts 292°
2026-05-04 14:14 50.14908 20.89215 10956 ft 237 kts 291°
2026-05-04 14:14 50.15598 20.86883 10953 ft 235 kts 290°
2026-05-04 14:15 50.16953 20.82246 10954 ft 235 kts 290°
2026-05-04 14:15 50.18297 20.77655 10965 ft 234 kts 291°
2026-05-04 14:16 50.19671 20.73041 10956 ft 234 kts 291°
2026-05-04 14:16 50.20353 20.70729 10952 ft 234 kts 291°
2026-05-04 14:17 50.21722 20.66110 10954 ft 234 kts 291°
2026-05-04 14:17 50.22402 20.63811 10963 ft 234 kts 291°
2026-05-04 14:17 50.22629 20.59170 10940 ft 220 kts 239°
2026-05-04 14:18 50.21707 20.57259 10411 ft 218 kts 232°
2026-05-04 14:18 50.20073 20.53438 9136 ft 208 kts 240°
2026-05-04 14:19 50.18892 20.49270 7637 ft 212 kts 248°
2026-05-04 14:19 50.18402 20.47127 6916 ft 213 kts 250°
2026-05-04 14:19 50.17907 20.44944 6191 ft 214 kts 249°
2026-05-04 14:19 50.17402 20.42761 5538 ft 212 kts 249°
2026-05-04 14:20 50.16915 20.40672 5244 ft 197 kts 249°
2026-05-04 14:20 50.16467 20.38748 5093 ft 180 kts 249°
2026-05-04 14:20 50.16048 20.36975 5010 ft 171 kts 248°
2026-05-04 14:21 50.15185 20.33410 4971 ft 181 kts 254°
2026-05-04 14:21 50.14916 20.31477 4959 ft 184 kts 258°
2026-05-04 14:21 50.14689 20.29507 4962 ft 186 kts 258°
2026-05-04 14:21 50.14466 20.27514 4976 ft 186 kts 259°
2026-05-04 14:22 50.14228 20.25548 4980 ft 187 kts 258°
2026-05-04 14:22 50.13969 20.23551 4984 ft 189 kts 257°
2026-05-04 14:22 50.13703 20.21540 4976 ft 189 kts 257°
2026-05-04 14:22 50.13427 20.19479 4731 ft 201 kts 257°
2026-05-04 14:23 50.12807 20.14990 4177 ft 216 kts 257°
2026-05-04 14:23 50.12490 20.12710 4086 ft 214 kts 257°
2026-05-04 14:23 50.12181 20.10454 4038 ft 212 kts 257°
2026-05-04 14:24 50.11873 20.08230 3941 ft 210 kts 257°
2026-05-04 14:24 50.11562 20.05943 3570 ft 220 kts 257°
2026-05-04 14:24 50.11237 20.03580 3296 ft 225 kts 257°
2026-05-04 14:24 50.10920 20.01190 3152 ft 224 kts 257°
2026-05-04 14:25 50.10716 19.99617 3096 ft 222 kts 257°
2026-05-04 14:25 50.10090 19.95130 2773 ft 198 kts 256°
2026-05-04 14:25 50.09708 19.92491 2428 ft 179 kts 256°
2026-05-04 14:26 50.09538 19.91240 2279 ft 170 kts 256°
2026-05-04 14:26 50.09302 19.89524 2052 ft 158 kts 256°
2026-05-04 14:26 50.09090 19.87891 1850 ft 152 kts 256°
2026-05-04 14:26 50.08859 19.86296 1627 ft 147 kts 256°
2026-05-04 14:27 50.08647 19.84852 1436 ft 138 kts 257°
2026-05-04 14:27 50.08444 19.83426 1258 ft 132 kts 258°
2026-05-04 14:27 50.08261 19.82070 1089 ft 125 kts 259°
2026-05-04 14:27 50.08084 19.80758 929 ft 123 kts 260°
2026-05-04 14:28 50.07906 19.79471 788 ft 119 kts 260°
2026-05-04 14:28 50.07794 19.78627 788 ft 68 kts 258°
2026-05-04 14:28 50.07712 19.78147 786 ft 20 kts 229°
2026-05-04 14:28 50.07589 19.78105 786 ft 0 kts 181°
2026-05-04 14:29 50.07503 19.78103 786 ft 13 kts 174°
2026-05-04 14:30 50.07481 19.78215 786 ft 16 kts 78°
2026-05-04 14:30 50.07507 19.78401 787 ft 16 kts 78°
2026-05-04 14:30 50.07564 19.78805 787 ft 18 kts 78°
2026-05-04 14:31 50.07590 19.78991 787 ft 17 kts 77°
2026-05-04 14:31 50.07534 19.79166 787 ft 9 kts 161°
2026-05-04 14:32 50.07545 19.79367 787 ft 4 kts 57°
2026-05-04 14:32 50.07583 19.79378 787 ft 7 kts 350°
2026-05-04 14:32 50.07588 19.79376 787 ft 0 kts 348°
2026-05-04 14:48 50.07589 19.79376 813 ft 0 kts 348°
2026-05-04 14:48 50.07601 19.79372 785 ft 4 kts 348°
2026-05-04 14:48 50.07641 19.79377 785 ft 7 kts 51°
2026-05-04 14:49 50.07662 19.79502 785 ft 15 kts 77°
2026-05-04 14:49 50.07679 19.79626 785 ft 13 kts 78°
2026-05-04 14:49 50.07700 19.79776 785 ft 12 kts 78°
2026-05-04 14:49 50.07718 19.79905 785 ft 12 kts 77°
2026-05-04 14:50 50.07739 19.80062 785 ft 14 kts 78°
2026-05-04 14:50 50.07763 19.80233 786 ft 15 kts 78°
2026-05-04 14:50 50.07796 19.80344 786 ft 7 kts 16°
2026-05-04 14:50 50.07842 19.80337 786 ft 0 kts 348°
2026-05-04 14:51 50.07855 19.80333 786 ft 5 kts 348°
2026-05-04 14:51 50.07920 19.80310 785 ft 14 kts 347°
2026-05-04 14:52 50.08002 19.80268 785 ft 12 kts 329°
2026-05-04 14:52 50.08010 19.80171 785 ft 12 kts 257°
2026-05-04 14:52 50.07982 19.79963 785 ft 43 kts 258°
2026-05-04 14:52 50.07872 19.79179 786 ft 103 kts 258°
2026-05-04 14:53 50.07689 19.77848 872 ft 141 kts 258°
2026-05-04 14:53 50.07448 19.76253 1153 ft 164 kts 258°
2026-05-04 14:53 50.07210 19.74379 1388 ft 186 kts 266°
2026-05-04 14:53 50.07395 19.72310 1703 ft 204 kts 289°
2026-05-04 14:54 50.08150 19.70328 1855 ft 223 kts 309°
2026-05-04 14:54 50.09370 19.68724 1880 ft 237 kts 329°
2026-05-04 14:54 50.10942 19.67822 1897 ft 246 kts 348°
2026-05-04 14:54 50.12642 19.67901 1965 ft 246 kts 10°
2026-05-04 14:55 50.15491 19.70847 1986 ft 256 kts 38°
2026-05-04 14:55 50.16892 19.72596 1980 ft 257 kts 32°
2026-05-04 14:55 50.18489 19.73737 1952 ft 250 kts 13°
2026-05-04 14:56 50.20170 19.74084 1965 ft 240 kts 355°
2026-05-04 14:56 50.21744 19.73492 1990 ft 230 kts 330°
2026-05-04 14:56 50.22900 19.71869 1941 ft 222 kts 298°
2026-05-04 14:56 50.23623 19.69758 2006 ft 218 kts 291°
2026-05-04 14:57 50.24061 19.67524 1911 ft 214 kts 277°
2026-05-04 14:57 50.24299 19.65234 1872 ft 212 kts 276°
2026-05-04 14:57 50.24557 19.62934 1820 ft 216 kts 279°
2026-05-04 14:57 50.24876 19.60652 1849 ft 213 kts 280°
2026-05-04 14:58 50.25195 19.58389 1837 ft 215 kts 278°
2026-05-04 14:58 50.25499 19.56115 1892 ft 210 kts 281°
2026-05-04 14:58 50.25819 19.53901 1857 ft 210 kts 281°
2026-05-04 14:58 50.26137 19.51646 1741 ft 216 kts 279°
2026-05-04 14:59 50.26432 19.49322 1722 ft 216 kts 278°
2026-05-04 14:59 50.26683 19.47032 1764 ft 211 kts 275°
2026-05-04 14:59 50.27199 19.42512 1655 ft 214 kts 289°
2026-05-04 15:00 50.28054 19.40598 1523 ft 220 kts 309°
2026-05-04 15:00 50.28923 19.38680 1570 ft 211 kts 297°
2026-05-04 15:00 50.29636 19.36707 1798 ft 201 kts 296°
2026-05-04 15:01 50.30916 19.32816 1888 ft 208 kts 290°
2026-05-04 15:01 50.31465 19.30663 1785 ft 217 kts 287°
2026-05-04 15:01 50.31955 19.28476 1946 ft 208 kts 284°
2026-05-04 15:01 50.32363 19.26342 2074 ft 200 kts 282°
2026-05-04 15:02 50.32758 19.24347 2361 ft 186 kts 289°
2026-05-04 15:02 50.33523 19.22699 2522 ft 195 kts 315°
2026-05-04 15:02 50.34544 19.21205 2397 ft 207 kts 306°
2026-05-04 15:02 50.35435 19.19433 2422 ft 208 kts 301°
2026-05-04 15:03 50.36257 19.17535 2383 ft 212 kts 298°
2026-05-04 15:03 50.37044 19.15556 2359 ft 215 kts 297°
2026-05-04 15:03 50.37794 19.13564 2394 ft 215 kts 295°
2026-05-04 15:03 50.38518 19.11510 2365 ft 216 kts 292°
2026-05-04 15:04 50.39150 19.09361 2343 ft 219 kts 288°
2026-05-04 15:04 50.39701 19.07121 2231 ft 221 kts 285°
2026-05-04 15:04 50.40487 19.05119 2148 ft 222 kts 316°
2026-05-04 15:04 50.42028 19.04724 1937 ft 233 kts 13°
2026-05-04 15:05 50.43528 19.05302 1954 ft 230 kts 10°
2026-05-04 15:05 50.44860 19.06290 2435 ft 202 kts 55°
2026-05-04 15:05 50.45294 19.08387 2055 ft 204 kts 84°
2026-05-04 15:05 50.45504 19.10531 1806 ft 193 kts 84°
2026-05-04 15:06 50.45658 19.12492 1657 ft 172 kts 91°
2026-05-04 15:06 50.45688 19.14326 1513 ft 167 kts 92°
2026-05-04 15:06 50.45707 19.16188 1601 ft 172 kts 92°
2026-05-04 15:07 50.46104 19.19964 1776 ft 183 kts 51°
2026-05-04 15:07 50.47223 19.20805 1748 ft 187 kts 354°
2026-05-04 15:07 50.48260 19.19939 1933 ft 156 kts 291°
2026-05-04 15:07 50.48225 19.18417 1758 ft 140 kts 245°
2026-05-04 15:08 50.47876 19.17005 1656 ft 140 kts 250°
2026-05-04 15:08 50.47660 19.15564 1528 ft 143 kts 261°
2026-05-04 15:08 50.47629 19.14055 1429 ft 133 kts 264°
2026-05-04 15:08 50.47611 19.12632 1288 ft 128 kts 265°
2026-05-04 15:09 50.47605 19.11255 1155 ft 122 kts 266°
2026-05-04 15:09 50.47602 19.09973 1066 ft 113 kts 264°
2026-05-04 15:09 50.47596 19.08777 997 ft 104 kts 269°
2026-05-04 15:10 50.47633 19.06098 1214 ft 127 kts 267°
2026-05-04 15:10 50.47650 19.04730 1478 ft 128 kts 266°
2026-05-04 15:10 50.46866 19.02269 1649 ft 156 kts 199°
2026-05-04 15:11 50.45726 19.02229 1744 ft 172 kts 179°
2026-05-04 15:11 50.44496 19.02397 1810 ft 181 kts 180°
2026-05-04 15:11 50.43214 19.02575 1866 ft 187 kts 177°
2026-05-04 15:11 50.42049 19.03414 1936 ft 198 kts 140°
2026-05-04 15:12 50.41417 19.05460 1834 ft 220 kts 101°
2026-05-04 15:12 50.41469 19.07845 1923 ft 221 kts 88°
2026-05-04 15:12 50.41679 19.10250 1900 ft 229 kts 83°
2026-05-04 15:12 50.41962 19.12742 1798 ft 235 kts 83°
2026-05-04 15:13 50.42264 19.15286 1723 ft 235 kts 82°
2026-05-04 15:13 50.42426 19.17826 1641 ft 236 kts 88°
2026-05-04 15:13 50.42550 19.20379 1787 ft 229 kts 86°
2026-05-04 15:13 50.43046 19.22636 2007 ft 222 kts 52°
2026-05-04 15:14 50.44419 19.23801 1718 ft 232 kts
2026-05-04 15:14 50.45879 19.23559 1568 ft 196 kts 346°
2026-05-04 15:14 50.47094 19.23017 1657 ft 170 kts 334°
2026-05-04 15:14 50.47695 19.21664 1625 ft 163 kts 269°
2026-05-04 15:15 50.47605 19.19881 1459 ft 164 kts 267°
2026-05-04 15:15 50.47636 19.18071 1456 ft 167 kts 268°
2026-05-04 15:15 50.47608 19.16221 1427 ft 172 kts 268°
2026-05-04 15:16 50.47619 19.12823 1279 ft 145 kts 266°
2026-05-04 15:16 50.47606 19.11279 1135 ft 138 kts 266°
2026-05-04 15:16 50.47601 19.08926 999 ft 121 kts 267°
2026-05-04 15:17 50.47597 19.07630 999 ft 126 kts 271°
2026-05-04 15:17 50.47644 19.04787 1403 ft 136 kts 266°
2026-05-04 15:17 50.47626 19.03094 1584 ft 170 kts 263°
2026-05-04 15:18 50.47185 19.01338 1818 ft 189 kts 222°
2026-05-04 15:18 50.45873 19.00724 1862 ft 213 kts 179°
2026-05-04 15:18 50.44331 19.00924 1889 ft 230 kts 176°
2026-05-04 15:19 50.41882 19.02561 1825 ft 186 kts 115°
2026-05-04 15:19 50.41847 19.04540 1696 ft 179 kts 86°
2026-05-04 15:19 50.42252 19.09009 2130 ft 227 kts 84°
2026-05-04 15:20 50.42500 19.11542 2253 ft 241 kts 84°
2026-05-04 15:20 50.42775 19.14174 2001 ft 246 kts 83°
2026-05-04 15:20 50.43086 19.16777 1814 ft 231 kts 72°
2026-05-04 15:20 50.44014 19.18557 1690 ft 205 kts 27°
2026-05-04 15:21 50.45345 19.18907 1467 ft 190 kts 352°
2026-05-04 15:21 50.46602 19.18646 1480 ft 179 kts 342°
2026-05-04 15:21 50.47776 19.15960 1418 ft 156 kts 255°
2026-05-04 15:22 50.47610 19.14330 1327 ft 151 kts 264°
2026-05-04 15:22 50.47611 19.12751 1191 ft 141 kts 266°
2026-05-04 15:22 50.47599 19.09859 1042 ft 122 kts 265°
2026-05-04 15:23 50.47592 19.08608 996 ft 109 kts 269°
2026-05-04 15:23 50.47597 19.07356 998 ft 126 kts 270°
2026-05-04 15:23 50.47615 19.05937 1150 ft 128 kts 266°
2026-05-04 15:23 50.47641 19.04525 1373 ft 136 kts 266°
2026-05-04 15:24 50.47443 19.00923 1776 ft 191 kts 241°
2026-05-04 15:24 50.44835 18.99518 1865 ft 230 kts 174°
2026-05-04 15:25 50.43395 18.99748 1891 ft 188 kts 177°
2026-05-04 15:25 50.42178 18.99966 1780 ft 166 kts 174°
2026-05-04 15:25 50.41135 19.00891 1661 ft 198 kts 130°
2026-05-04 15:26 50.40083 19.05053 1788 ft 187 kts 126°
2026-05-04 15:26 50.39475 19.06682 1756 ft 166 kts 127°
2026-05-04 15:26 50.38362 19.09872 1726 ft 165 kts 122°
2026-05-04 15:27 50.37832 19.11425 1774 ft 161 kts 124°
2026-05-04 15:27 50.36386 19.14802 1968 ft 216 kts 129°
2026-05-04 15:28 50.34501 19.18873 2022 ft 218 kts 128°
2026-05-04 15:28 50.33702 19.20674 1929 ft 190 kts 132°
2026-05-04 15:28 50.32145 19.23669 1672 ft 180 kts 128°
2026-05-04 15:29 50.31602 19.25536 1612 ft 194 kts 109°
2026-05-04 15:30 50.29557 19.34086 1959 ft 216 kts 116°
2026-05-04 15:30 50.27763 19.40814 2103 ft 224 kts 119°
2026-05-04 15:31 50.25977 19.44703 1988 ft 232 kts 134°
2026-05-04 15:31 50.24931 19.46548 2055 ft 221 kts 136°
2026-05-04 15:32 50.21967 19.51621 2000 ft 218 kts 136°
2026-05-04 15:32 50.19946 19.55084 1997 ft 210 kts 127°
2026-05-04 15:33 50.19044 19.59340 2053 ft 204 kts 108°
2026-05-04 15:34 50.18358 19.65464 1912 ft 202 kts 160°
2026-05-04 15:34 50.17010 19.65632 2055 ft 191 kts 190°
2026-05-04 15:34 50.14427 19.64903 2236 ft 188 kts 187°
2026-05-04 15:35 50.12014 19.66998 1897 ft 220 kts 128°
2026-05-04 15:35 50.11313 19.69110 1910 ft 220 kts 108°
2026-05-04 15:35 50.11061 19.71437 1799 ft 221 kts 98°
2026-05-04 15:36 50.10820 19.76014 1824 ft 215 kts 91°
2026-05-04 15:36 50.10854 19.78344 1880 ft 216 kts 89°
2026-05-04 15:36 50.10890 19.80591 1838 ft 197 kts 91°
2026-05-04 15:37 50.10983 19.82626 1745 ft 179 kts 88°
2026-05-04 15:37 50.10983 19.84460 1829 ft 156 kts 106°
2026-05-04 15:37 50.10535 19.85848 1779 ft 139 kts 140°
2026-05-04 15:37 50.09705 19.86545 1532 ft 138 kts 178°
2026-05-04 15:38 50.08844 19.86189 1396 ft 128 kts 227°
2026-05-04 15:38 50.08567 19.84894 1212 ft 129 kts 265°
2026-05-04 15:38 50.08452 19.83519 1053 ft 126 kts 259°
2026-05-04 15:38 50.08288 19.82215 981 ft 119 kts 258°
2026-05-04 15:39 50.08130 19.80976 915 ft 116 kts 258°
2026-05-04 15:39 50.07947 19.79736 812 ft 118 kts 257°
2026-05-04 15:39 50.07745 19.78261 786 ft 27 kts 257°
2026-05-04 15:40 50.07658 19.78110 785 ft 19 kts 182°
2026-05-04 15:40 50.07610 19.78107 785 ft 0 kts 181°
2026-05-04 15:40 50.07605 19.78107 785 ft 5 kts 181°
2026-05-04 15:40 50.07516 19.78104 785 ft 14 kts 181°
2026-05-04 15:41 50.07477 19.78178 785 ft 14 kts 78°
2026-05-04 15:41 50.07499 19.78341 786 ft 16 kts 77°
2026-05-04 15:41 50.07526 19.78528 785 ft 17 kts 77°
2026-05-04 15:41 50.07552 19.78715 786 ft 19 kts 78°
2026-05-04 15:42 50.07577 19.78894 786 ft 14 kts 78°
2026-05-04 15:42 50.07600 19.79058 786 ft 17 kts 77°
2026-05-04 15:42 50.07578 19.79155 786 ft 10 kts 169°
2026-05-04 15:42 50.07524 19.79181 786 ft 7 kts 121°
2026-05-04 15:43 50.07532 19.79289 786 ft 13 kts 78°
2026-05-04 15:43 50.07556 19.79379 786 ft 7 kts 30°
2026-05-04 15:43 50.07589 19.79376 786 ft 0 kts 349°